Simultaneous Nadir Overpasses (SNOs) Predictions

Prediction of SNOs between GOES-16 and AQUA Satellite Orbit:

Table of predicted SNOs for the next 14.0 days since TLE Epoch: 5/25/2019
Index Date Time (GOES-16) GOES-16 Lat,Lon AQUA Lat,Lon Distance(km) Time Diff (sec)
1 05/25/2019 06:44:31 -0.02, -75.18 0.33, -76.83 186.68 80
2 05/27/2019 06:29:39 -0.00, -75.19 -0.28, -73.87 150.67 80
3 05/27/2019 18:51:04 -0.00, -75.20 -0.81, -79.06 439.02 80
4 05/29/2019 06:17:28 0.01, -75.21 -0.89, -70.91 488.48 80
5 05/29/2019 18:38:52 -0.00, -75.22 -0.20, -76.10 101.13 80
6 05/31/2019 18:29:21 0.01, -75.23 0.47, -73.16 236.90 80
7 06/01/2019 06:50:36 -0.01, -75.24 0.62, -78.31 349.18 80
8 06/03/2019 06:38:24 -0.01, -75.26 -0.00, -75.35 10.80 80
9 06/05/2019 06:23:32 -0.01, -75.28 -0.62, -72.39 327.90 80
10 06/05/2019 18:44:57 0.01, -75.29 -0.46, -77.59 261.79 80
11 06/07/2019 18:35:25 0.00, -75.31 0.17, -74.64 77.44 80




NCC Satellite Simultaneous Nadir Overpasses (SNOs) Prediction Service
